Temp
18 16 16 16 16 18 18 18 18 20 21 21 20 20 21 21 22 21 21 23 23 25 28 29 31 31 28 29 28 27 26 32 29 26 25 25 25 27 27 27 27 27 26 26
16 16 19 20 20 19 18 18 18 19 21 21 20 20 21 21 21 21 21 21 22 23 25 27 28 30 30 30 30 31 28 26 27 27 27 26 26 26 28 27 27 26 26 26
16 17 19 20 19 19 18 17 17 17 18 19 19 19 20 21 21 21 21 21 21 21 22 24 25 26 29 29 29 29 30 29 26 28 25 24 25 25 25 25 26 27 26 26
17 18 19 19 18 18 17 17 17 17 16 15 18 16 18 20 20 20 21 20 20 20 21 21 23 23 26 28 31 29 28 27 25 25 24 25 27 26 28 28 28 27 27 25
17 18 17 18 18 18 17 17 17 17 16 15 16 14 18 19 19 20 21 21 20 20 20 21 23 24 26 28 29 31 31 26 25 26 28 29 27 28 29 28 26 26 27 26
18 20 18 18 18 18 17 16 15 14 14 13 16 15 17 18 19 20 19 17 18 18 20 21 21 24 23 26 29 30 28 27 27 28 28 28 27 27 26 25 25 25 25 24
17 18 19 18 17 16 16 13 11 11 12 13 16 15 17 18 16 14 15 15 16 16 15 15 17 21 23 24 25 28 28 28 29 28 28 28 28 28 27 26 25 23 22 21
13 14 18 17 17 16 15 13 9 11 13 13 15 14 15 15 15 15 16 15 16 15 14 15 15 18 21 23 26 25 26 26 28 29 28 28 26 26 26 25 25 24 23 22
13 14 17 18 18 17 15 13 13 10 12 12 13 15 17 16 15 15 16 16 15 16 14 15 15 17 20 23 24 24 24 25 27 27 27 25 25 23 25 25 23 24 22 22
14 12 17 17 17 17 15 15 12 9 11 12 14 15 14 14 14 14 15 15 15 15 15 15 15 16 17 19 21 25 24 24 26 27 26 25 24 23 25 24 23 22 22 21
12 12 14 15 14 14 14 13 12 11 11 13 12 13 13 13 14 13 13 14 14 14 14 14 15 16 17 17 19 22 25 24 24 24 24 23 22 23 23 23 23 22 21 21
11 10 10 13 15 15 14 13 11 10 12 11 12 12 16 13 13 13 13 14 14 14 13 13 14 14 16 17 17 19 23 23 24 23 23 23 23 23 22 22 21 21 21 20
12 9 10 12 14 13 13 13 13 12 11 11 12 12 15 13 12 13 12 13 14 14 14 14 13 15 16 15 17 19 21 22 22 23 23 23 22 21 21 21 21 21 20 20
11 10 10 11 13 13 11 12 13 12 10 12 13 13 15 16 15 14 13 14 15 15 15 15 15 16 16 16 17 19 21 22 23 23 23 21 20 20 20 21 20 21 21 20
10 11 11 12 12 13 12 12 13 13 13 12 14 14 15 14 15 14 14 18 16 17 19 19 17 17 17 16 17 20 22 21 21 20 20 19 19 19 20 20 20 20 21 21
10 10 11 11 13 13 13 13 14 15 15 14 14 13 16 15 15 15 16 18 18 18 19 20 20 19 18 18 19 17 22 19 20 19 18 18 18 19 19 21 21 21 21 21
9 9 10 11 13 13 12 14 14 14 15 13 12 13 13 13 13 14 13 14 15 16 18 17 18 17 17 17 17 16 19 20 19 19 19 19 19 19 20 21 21 21 21 21
9 8 10 10 10 11 12 13 13 12 14 13 13 12 11 11 11 12 14 15 14 14 16 17 17 15 16 15 17 17 17 20 20 20 20 20 20 20 20 21 21 20 20 20
9 9 10 10 9 12 14 12 11 10 10 12 10 10 10 10 10 13 16 13 12 13 15 17 17 15 15 15 15 17 17 20 21 20 20 20 20 20 21 20 19 19 19 19
10 10 10 10 10 8 11 12 12 10 11 11 10 11 11 10 9 10 11 11 11 13 15 16 16 16 15 14 14 14 19 20 20 20 19 20 21 22 20 19 19 20 20 18
10 11 11 10 10 10 11 11 10 9 11 10 9 10 10 9 10 11 11 11 11 12 15 16 16 16 15 14 15 17 20 20 20 20 21 21 22 20 20 19 19 19 19 18
9 9 10 10 10 9 11 9 10 10 10 9 9 10 10 10 10 11 12 12 12 13 15 15 15 15 15 14 15 18 20 20 20 20 20 20 21 20 19 19 18 19 17 15
9 9 10 10 10 10 10 8 9 9 10 10 10 9 10 10 10 12 12 13 13 13 14 15 16 15 14 15 16 20 20 20 19 19 19 18 19 19 19 19 18 16 16 14
10 9 9 9 10 9 10 10 10 9 10 10 9 9 9 9 11 11 12 12 12 13 13 15 16 15 16 17 19 20 20 20 19 19 18 18 19 18 18 19 19 16 15 14
10 11 9 8 10 10 11 11 10 10 10 9 10 9 10 10 11 12 12 12 12 13 13 15 16 16 16 18 21 21 20 20 19 18 18 18 17 18 17 17 16 16 16 17
11 11 10 10 10 10 10 9 10 10 9 9 9 9 10 10 10 11 10 11 13 14 14 16 15 15 16 19 20 20 20 20 19 18 17 17 16 15 15 15 14 16 16 16
Height
757 770 778 771 769 762 763 763 764 753 742 742 742 733 723 719 717 719 715 709 705 696 685 681 682 683 689 691 693 697 698 692 695 699 705 709 710 712 715 717 718 721 724 725
771 774 759 755 754 756 758 762 762 749 740 741 742 728 715 716 716 713 712 708 703 696 687 679 679 678 677 680 685 688 690 693 689 691 693 697 700 703 706 711 713 715 718 719
771 764 751 752 756 757 760 764 764 764 749 745 744 732 721 710 711 709 708 706 701 697 690 683 678 675 674 672 675 677 681 683 687 685 689 693 699 702 705 706 706 708 710 713
764 752 753 755 757 757 766 757 756 756 762 771 750 754 730 719 712 710 706 704 700 692 686 681 676 672 668 667 668 670 671 675 678 682 683 685 686 691 693 696 699 703 703 705
762 755 756 758 758 753 760 755 756 754 757 760 753 764 721 718 717 710 703 697 693 687 683 678 670 665 660 659 661 662 662 666 671 674 676 678 679 684 688 692 694 697 698 700
752 743 748 752 750 749 751 755 757 759 759 768 746 754 708 720 713 704 701 703 697 693 683 676 667 662 656 654 653 653 655 658 665 667 670 671 674 679 684 687 690 692 694 695
753 750 745 747 755 753 757 769 787 781 773 764 739 746 723 708 711 718 713 704 696 690 686 679 673 664 655 650 651 647 649 651 656 661 665 666 669 672 676 681 685 687 689 693
775 774 749 750 754 759 762 768 798 786 770 759 749 744 724 712 708 708 706 702 692 686 681 676 671 662 654 648 645 645 643 645 648 651 653 657 661 665 670 677 679 682 685 689
774 766 745 745 745 752 756 766 756 778 763 764 749 726 708 705 705 699 697 691 687 680 677 669 663 658 648 641 636 634 635 636 640 643 647 651 655 660 665 672 675 677 682 688
768 770 747 745 745 741 749 748 769 780 768 754 734 727 724 711 707 701 693 690 682 677 671 664 659 652 643 638 631 627 624 625 629 634 640 645 649 654 661 667 669 674 681 687
767 770 760 754 751 746 753 755 759 766 764 750 748 735 714 711 703 703 695 686 679 673 667 659 652 647 641 635 629 620 614 617 622 628 633 639 645 652 658 661 666 672 679 684
770 776 779 758 738 739 743 747 755 767 756 752 748 732 698 702 696 696 687 677 672 666 659 652 646 640 635 632 624 615 608 612 614 621 629 636 642 648 653 658 664 670 676 682
769 782 774 758 746 745 743 744 745 747 750 749 746 721 693 696 695 690 686 676 667 658 648 641 640 634 630 625 619 616 610 607 611 618 626 635 641 646 652 657 663 669 676 682
767 775 775 767 748 742 748 742 740 744 754 735 723 712 698 685 684 679 675 663 657 649 641 633 630 626 622 619 615 613 610 603 609 618 626 632 639 646 650 655 662 668 675 682
769 768 766 751 744 738 736 735 728 725 721 727 706 704 691 685 675 669 667 654 652 642 630 622 623 616 609 612 614 611 613 604 609 616 625 633 639 645 652 657 663 668 676 682
769 761 756 745 732 726 726 720 715 706 704 702 700 697 678 676 669 667 665 656 649 642 627 623 616 612 606 604 606 606 611 610 611 616 623 634 642 644 652 657 664 671 677 684
771 767 761 743 727 723 721 708 706 706 700 705 707 692 687 680 676 676 668 663 654 648 643 631 623 613 610 594 599 610 620 610 613 616 626 636 642 647 655 661 666 673 678 684
760 767 754 748 744 730 718 714 714 714 703 700 695 696 696 689 685 676 666 661 662 652 639 623 616 614 609 612 604 607 623 612 614 619 630 638 644 651 658 663 668 674 680 685
750 755 754 749 756 727 709 717 720 721 707 698 702 700 693 694 682 652 657 663 662 651 636 621 614 612 616 615 617 615 620 612 615 623 634 643 648 654 658 664 670 675 681 687
749 749 751 746 745 753 716 715 716 718 704 698 702 698 690 694 688 662 664 661 652 640 630 620 612 604 609 612 608 616 614 612 616 628 638 644 649 655 660 666 672 678 682 688
746 742 740 738 739 725 712 713 716 723 705 697 703 698 692 691 687 676 664 651 648 635 625 619 612 606 613 613 611 619 612 616 624 633 639 645 651 657 662 668 673 678 683 688
753 748 741 734 731 734 713 718 720 709 698 695 695 692 689 682 673 671 659 649 645 634 620 619 615 603 596 596 597 612 610 619 626 635 642 647 652 657 664 669 675 679 684 689
751 744 738 738 727 712 714 714 708 706 698 692 688 683 687 676 667 658 649 640 639 633 624 613 609 615 612 610 615 610 614 621 629 638 645 649 653 659 666 670 675 680 684 690
738 737 734 731 712 709 707 706 706 702 695 690 689 679 678 668 663 654 646 640 634 629 625 618 610 611 616 614 614 611 619 628 635 641 646 651 656 662 667 671 675 678 683 689
738 730 730 726 711 708 702 701 699 696 691 690 684 677 670 663 657 652 644 637 630 626 622 617 613 614 616 616 614 617 626 631 638 643 648 653 659 664 669 672 675 678 682 686
725 721 722 712 709 708 702 699 692 691 690 686 681 674 667 663 656 650 643 634 623 617 612 607 615 599 617 615 615 621 628 634 639 647 650 655 660 665 668 671 675 679 684 689
Wind_Speed
4 3 4 11 9 12 7 10 7 5 8 6 8 15 14 6 6 8 9 12 13 15 19 20 26 30 23 22 36 38 29 42 42 36 35 36 37 46 44 41 38 35 33 34
6 3 3 5 7 6 8 5 7 6 7 11 12 21 18 8 6 7 10 11 11 13 17 18 20 30 34 29 29 32 39 35 45 42 41 33 37 44 44 40 36 34 34 36
3 7 8 8 6 7 5 5 8 8 12 8 6 17 16 15 5 6 8 9 10 10 13 15 13 17 30 31 28 30 37 49 48 49 39 28 27 18 26 31 30 30 32 34
6 7 5 7 3 3 3 7 10 12 9 4 3 13 16 12 14 7 9 8 11 11 11 10 13 11 19 27 25 24 26 46 48 47 38 37 28 20 29 26 27 24 23 26
10 5 11 3 1 2 6 6 6 9 10 4 9 6 14 5 13 15 13 15 11 12 10 12 14 18 28 32 28 26 23 36 43 48 41 37 30 33 31 30 24 22 27 27
8 3 4 5 2 1 3 4 6 4 3 6 9 8 26 12 10 14 12 13 14 16 15 14 14 24 23 28 25 24 25 31 41 37 38 37 34 33 29 27 20 22 24 26
3 3 3 3 1 3 1 4 4 5 3 5 2 5 19 9 3 2 9 12 12 12 12 15 17 14 17 21 28 29 32 35 37 37 38 39 39 38 37 29 25 24 25 27
3 6 2 2 4 5 5 6 4 4 6 10 13 7 5 7 3 3 7 9 10 8 10 14 17 17 17 22 29 32 34 35 41 44 46 45 43 39 35 29 28 27 31 30
3 5 8 6 3 2 2 4 7 3 3 5 5 7 6 5 6 9 10 10 13 13 10 14 17 14 21 24 28 31 32 38 43 44 43 38 40 34 33 30 27 28 32 30
3 7 4 2 5 9 6 2 2 2 3 5 5 5 6 8 8 10 13 12 14 14 14 14 13 16 24 26 30 30 38 38 44 43 41 40 36 33 31 29 26 29 28 25
1 2 5 4 5 13 3 2 2 2 3 4 5 5 6 8 10 8 12 13 12 16 16 12 13 16 22 22 28 32 32 32 33 34 34 31 31 32 30 27 27 27 26 24
1 1 4 10 20 9 4 4 5 3 3 3 3 8 10 11 12 7 11 15 15 15 15 12 12 12 15 20 21 27 27 23 25 27 28 29 29 28 27 26 27 26 25 23
1 1 5 7 3 3 2 4 4 4 2 6 4 8 5 11 10 8 9 13 17 15 14 8 8 11 13 15 16 20 19 23 25 28 28 26 26 26 27 29 27 27 26 24
5 2 6 7 15 10 13 15 15 9 4 6 14 19 17 20 15 11 11 11 12 14 14 7 9 13 13 14 17 14 17 31 33 31 29 26 27 29 31 32 31 31 29 27
6 5 10 19 21 20 19 19 21 16 15 12 18 16 17 9 17 11 13 13 13 15 15 16 13 17 20 10 15 16 14 25 30 29 28 27 30 31 31 31 31 29 31 30
3 5 6 15 18 16 17 18 20 19 14 9 5 11 11 11 10 10 13 14 15 15 23 25 24 22 17 14 15 6 16 21 30 27 27 27 28 31 33 34 33 31 28 28
5 3 3 5 8 13 6 4 4 3 2 3 6 10 9 16 17 16 19 20 13 18 16 13 13 3 13 7 18 17 23 24 26 28 28 28 30 28 33 33 32 29 26 25
6 4 3 5 6 3 2 6 5 8 11 12 12 8 11 15 20 18 15 5 13 18 19 17 13 1 4 8 18 28 29 24 28 30 28 29 30 27 29 32 29 26 27 30
5 3 3 2 2 7 2 4 3 3 17 12 6 12 17 18 19 21 2 14 19 19 19 16 19 8 2 4 16 17 12 25 29 28 27 27 28 26 29 26 26 29 32 30
3 4 4 1 3 4 3 4 4 7 9 2 12 16 20 19 13 17 19 24 24 21 17 16 24 7 8 5 11 17 20 26 26 26 27 30 29 28 29 28 31 31 28 26
3 4 9 5 5 6 4 4 2 0 6 15 13 17 16 14 11 19 24 24 18 19 18 24 21 9 6 7 20 26 24 24 28 30 32 32 29 30 32 30 32 31 28 24
3 2 3 3 4 5 1 2 1 5 17 16 14 13 15 18 19 16 18 16 15 16 16 20 12 7 12 12 19 11 21 26 31 30 28 32 31 28 30 32 29 29 28 27
2 5 3 5 5 5 6 7 7 8 15 17 14 14 15 17 18 17 14 14 10 12 13 21 14 6 11 18 16 16 21 28 28 26 25 26 29 30 29 29 29 27 28 23
5 1 3 1 6 13 7 5 5 7 14 11 11 17 15 17 14 15 14 14 14 13 12 17 11 5 7 17 14 27 27 29 28 25 24 27 29 25 25 29 29 28 24 20
9 5 4 7 12 9 5 6 12 12 10 9 15 14 15 14 14 14 15 16 14 13 14 15 5 5 8 8 24 29 27 29 25 23 23 23 25 28 24 23 22 25 25 28
3 3 3 3 6 5 7 7 11 8 6 12 13 13 13 13 14 14 14 15 15 13 12 6 6 7 15 8 25 26 30 29 29 21 22 26 25 24 23 22 16 17 19 19
Wind_Direction
305 76 211 247 227 244 263 271 270 284 297 281 275 276 286 281 302 306 300 301 299 292 277 262 251 255 226 213 223 225 232 206 211 202 203 212 219 227 230 232 236 238 241 246
8 287 242 282 311 314 312 311 309 275 304 305 302 288 284 270 253 265 275 280 284 296 295 274 257 241 251 241 220 227 230 227 211 208 210 210 214 220 222 226 227 229 233 239
198 252 295 316 317 330 337 353 348 335 324 333 329 288 292 293 247 278 286 272 280 271 284 286 268 239 241 239 247 237 228 223 218 211 208 201 211 207 218 229 232 237 241 244
253 251 269 288 299 42 335 348 331 321 329 279 6 285 286 289 289 267 281 284 282 283 279 273 281 271 236 240 232 237 236 214 208 207 199 198 202 202 225 230 237 239 248 248
250 278 278 294 5 327 268 333 306 306 286 297 262 263 286 327 295 298 289 276 270 275 266 276 281 280 259 243 232 240 236 216 207 207 209 209 211 222 232 239 243 250 255 250
238 240 133 168 225 286 311 318 318 326 222 247 275 220 277 256 272 276 329 347 337 336 325 308 284 283 279 249 223 214 214 219 215 209 213 217 219 225 229 238 242 239 237 220
325 325 96 118 329 331 157 14 327 331 346 241 8 296 260 270 64 107 318 314 313 313 320 318 315 301 285 278 242 216 208 209 213 219 226 228 230 230 229 228 223 216 204 198
176 322 313 81 213 257 241 181 165 258 280 289 290 249 266 80 47 287 276 271 295 305 315 312 310 308 279 260 258 231 212 209 212 215 221 227 228 227 227 221 219 208 201 195
316 260 325 285 15 73 253 193 206 188 231 262 236 278 279 45 341 332 322 319 309 315 307 310 308 308 315 289 273 233 217 216 216 218 223 224 229 217 217 215 211 206 203 194
327 300 186 282 331 267 181 211 272 10 286 251 260 270 257 313 302 310 315 313 300 307 303 303 300 305 310 323 292 245 222 213 217 221 224 225 223 215 204 202 197 200 196 191
91 194 276 3 237 281 312 222 59 126 201 267 295 259 230 247 260 266 282 290 297 299 292 287 293 291 303 306 317 269 229 209 205 212 212 208 206 196 194 193 193 193 187 187
51 249 282 278 278 280 239 213 159 194 210 230 257 259 258 224 244 248 284 304 299 277 273 271 282 287 296 309 313 303 235 213 207 199 190 182 180 183 184 186 186 182 179 180
240 287 301 315 27 322 121 224 225 231 209 223 254 264 233 250 253 251 276 296 284 279 275 279 277 296 298 307 302 294 199 175 179 174 172 175 180 182 181 181 175 169 166 169
134 220 229 255 277 284 282 282 277 231 206 248 249 277 295 289 280 243 254 252 268 283 282 283 309 298 282 288 290 287 185 159 161 163 165 165 167 172 172 171 167 166 166 163
132 258 253 258 265 271 269 269 273 266 242 239 271 271 286 287 306 241 235 292 301 300 308 312 309 296 298 296 264 284 191 149 149 146 149 153 160 164 162 163 164 159 153 157
148 271 279 284 268 263 266 267 261 254 264 265 289 280 248 312 300 287 258 293 305 316 317 313 304 294 300 263 223 230 211 145 143 136 135 140 140 140 138 141 143 148 156 155
162 241 259 263 302 302 282 308 319 312 307 303 277 274 343 327 323 334 319 311 347 354 333 327 316 343 297 173 156 210 268 146 132 130 134 138 133 132 139 147 147 145 144 149
178 200 235 281 337 288 106 34 32 348 275 311 287 326 328 316 320 304 294 311 340 347 325 333 339 183 293 340 144 204 240 146 135 131 136 138 139 139 142 147 146 147 153 155
148 149 254 270 245 278 328 16 15 354 290 273 332 333 320 330 318 301 27 356 338 319 313 322 320 264 160 275 282 206 261 139 130 131 136 143 146 143 142 144 146 150 150 154
223 243 206 199 263 251 217 163 290 297 273 30 346 323 316 339 312 299 328 320 314 305 307 318 318 326 353 280 273 295 179 131 126 134 144 145 145 144 147 149 147 152 156 152
238 231 240 252 255 273 163 224 275 354 299 312 327 305 309 302 282 298 302 298 291 291 303 322 329 357 41 300 235 202 140 134 140 143 142 147 154 153 155 150 152 150 149 144
215 227 243 242 247 281 117 6 132 245 281 296 299 290 303 292 293 294 297 288 285 293 315 327 325 351 291 280 341 162 135 137 140 143 147 152 155 151 151 152 151 152 149 140
297 209 226 211 236 229 232 226 249 266 286 296 295 301 304 290 295 299 304 308 312 318 321 319 319 31 260 279 287 140 135 138 139 141 144 145 150 153 157 152 151 144 146 135
311 189 239 190 254 255 274 310 292 275 294 298 309 301 297 291 293 299 305 309 310 305 309 305 318 206 268 278 206 132 143 144 143 143 141 144 145 151 156 157 159 152 149 144
273 272 304 254 269 288 301 296 301 302 301 303 309 300 300 299 298 297 298 293 288 287 286 278 199 206 220 194 144 136 142 144 140 136 137 138 146 153 145 146 152 161 168 173
233 227 266 285 277 256 282 288 301 308 316 308 306 308 303 296 293 298 294 288 278 271 262 256 122 340 332 181 128 133 137 140 138 137 138 149 147 148 148 147 136 157 170 182